Regional Weather Roundup
Issued by NWS

Home | Current Version | Previous Version | Graphics & Text | Print | Product List | Glossary On
Versions: 1 2 3 4 5 6 7 8 9 10 11 12 13 14 15 16 17 18 19 20 21 22 23 24 25 26 27 28 29 30 31 32 33 34 35 36 37 38 39 40 41 42 43 44 45 46 47 48 49 50
000
ASUS43 KMPX 280001
RWRMN
WEATHER ROUNDUP FOR MINNESOTA
NATIONAL WEATHER SERVICE TWIN CITIES/CHANHASSEN MN
700 PM CDT MON JUL 27 2015


NOTE: "FAIR" INDICATES FEW OR NO CLOUDS BELOW 12,000 FEET WITH NO
SIGNIFICANT WEATHER AND/OR OBSTRUCTIONS TO VISIBILITY. N/A MEANS
CURRENT SKY AND/OR WEATHER CONDITIONS ARE NOT AVAILABLE.

MNZ060>063-068>070-280100-
   Twin Cities Metro

CITY           SKY/WX    TMP DP  RH WIND       PRES   REMARKS
TWIN CITIES    MOSUNNY   84  72  67 SE12      29.89F
6HR MIN TEMP:  83; 6HR MAX TEMP:  86;

ST PAUL        SUNNY     83  72  69 SE13      29.89F
CRYSTAL        MOSUNNY   85  72  65 SE9       29.88F HX  91
BLAINE         MOSUNNY   84  72  65 SE10      29.90F
LAKEVILLE      MOSUNNY   81  72  74 SE9       29.90F
EDEN PRAIRIE   PTSUNNY   84  72  67 SE15G21   29.88F
6HR MIN TEMP:  83; 6HR MAX TEMP:  87;

SOUTH ST PAUL  MOSUNNY   83  71  66 SE8       29.90S
LAKE ELMO      FAIR      82  72  69 SE8       29.92F
$$
MNZ001>005-007-008-013>017-022>024-027-028-280100-
   Northwest Minnesota

CITY           SKY/WX    TMP DP  RH WIND       PRES   REMARKS
BEMIDJI        PTSUNNY   83  70  65 SE12      29.86F
HALLOCK        SUNNY     84  72  65 S13       29.77R
ROSEAU         SUNNY     84  73  70 SE10      29.82S HX  91
WARROAD        SUNNY     84  73  70 S7        29.83F HX  91
THIEF RVR FALL MOSUNNY   82  72  69 SE10      29.81S
CROOKSTON      MOSUNNY   84  72  65 S14       29.78F
FOSSTON        PTSUNNY   82  72  69 SE5       29.84S
DETROIT LAKES  MOSUNNY   86  68  54 SE12G21   29.84S
MOORHEAD       SUNNY     86  72  62 SE13G20   29.78S HX  92
PARK RAPIDS    MOSUNNY   85  68  56 S15       29.86S
MAHNOMEN       FAIR      85  70  61 SE8       29.82F
$$
MNZ006-009>011-018-025>026-280100-
   North Central Minnesota

CITY           SKY/WX    TMP DP  RH WIND       PRES   REMARKS
BAUDETTE       SUNNY     83  67  58 S12       29.85F
FLAG ISLAND    SUNNY     82  72  69 SE6       29.83S
INTL FALLS     SUNNY     85  66  53 S5        29.88S
6HR MIN TEMP:  82; 6HR MAX TEMP:  87;

WASKISH        MOSUNNY   84  68  58 SE5       29.86S
BIG FORK       SUNNY     84  66  54 S5        29.90S
LONGVILLE      MOSUNNY   82  70  65 S9        29.88F
GRAND RAPIDS   MOSUNNY   82  66  57 S10       29.90F
CRANE LAKE     SUNNY     86  55  35 S6        29.91F
ORR            SUNNY     84  59  42 CALM      29.88F
COOK           MOSUNNY   84  64  51 SE8       29.92S
WALKER         FAIR      81  70  68 SE7       29.87S
$$
MNZ012-019>021-037-280100-
   Northeast Minnesota

CITY           SKY/WX    TMP DP  RH WIND       PRES   REMARKS
DULUTH         MOSUNNY   81  63  54 SE8       29.95S
6HR MIN TEMP:  81; 6HR MAX TEMP:  86;

ELY            SUNNY     84  54  34 S8        29.94S
HIBBING        MOSUNNY   83  65  54 SE9       29.92S
EVELETH        MOSUNNY   81  61  50 S6        29.95R
DULUTH HARBOR  SUNNY     73  70  88 NE7       29.92S
TWO HARBORS    SUNNY     84  68  58 CALM      29.93R
SILVER BAY     SUNNY     82  59  44 E7        29.93S
GRAND MARAIS     N/A     70  65  84 CALM      29.93F
G MARAIS ARPRT SUNNY     75  55  50 CALM      30.02S
$$
MNZ029>031-032-039>041-046>048-054>057-064-280100-
   West Central Minnesota

CITY           SKY/WX    TMP DP  RH WIND       PRES   REMARKS
FERGUS FALLS   SUNNY     84  72  65 S15       29.79F
WHEATON        SUNNY     81  72  74 SE16      29.79F
MORRIS         SUNNY     82  73  74 SE14G20   29.80F
ALEXANDRIA     PTSUNNY   83  72  69 SE13      29.87F
ELBOW LAKE     FAIR      83  73  71 SE14G21   29.82S
WADENA         SUNNY     84  70  61 S13G20    29.85F
GLENWOOD       SUNNY     82  73  74 SE12      29.87F
APPLETON       SUNNY     84  72  65 SE12G17   29.79F
BENSON         MOSUNNY   84  70  61 S13       29.82F
ORTONVILLE     SUNNY     84  73  70 SE9G20    29.78F HX  91
MADISON        SUNNY     84  73  70 SE10      29.80S HX  91
WILLMAR        FAIR      84  73  70 SE10G17   29.86F HX  91
$$
MNZ033>034-036-042>043-049>051-058-059-280100-
   Central Minnesota

CITY           SKY/WX    TMP DP  RH WIND       PRES   REMARKS
ST CLOUD       MOSUNNY   84  71  65 S12       29.88S
6HR MIN TEMP:  83; 6HR MAX TEMP:  88;

SAUK CENTRE    FAIR      82  72  72 SE10      29.88S
PAYNESVILLE    MOSUNNY   80  72  76 E9        29.88F
AITKIN         MOSUNNY   84  70  61 SE10      29.89S
PINE RIVER     MOSUNNY   81  72  74 SE9       29.91S
BRAINERD       SUNNY     83  70  64 SE12      29.88F
STAPLES        SUNNY     82  68  61 SE9       29.86F
LONG PRAIRIE   FAIR      82  72  69 SE15      29.88S
LITTLE FALLS   MOSUNNY   84  68  58 SE12G18   29.88F
LITCHFIELD     MOSUNNY   82  75  78 SE9       29.87F
BUFFALO        MOSUNNY   83  71  66 E7        29.89F
MAPLE LAKE     PTSUNNY   82  73  74 SE10G16   29.89F
$$
MNZ037-044-045-052-053-280100-
   East Central Minnesota

CITY           SKY/WX    TMP DP  RH WIND       PRES   REMARKS
PRINCETON      MOSUNNY   84  72  65 SE8       29.89F
MORA           MOSUNNY   79  68  69 SE8       29.92F
CAMBRIDGE      MOSUNNY   84  70  61 SE9       29.89F
RUSH CITY      MOSUNNY   81  70  68 SE9       29.91F
MOOSE LAKE     SUNNY     82  66  57 S3        29.90F
HINCKLEY       FAIR      81  70  69 SE6       29.92S
CLOQUET        MOSUNNY   81  63  54 SE5       29.94S
MCGREGOR       MOSUNNY   82  68  61 SE10      29.92S
$$
MNZ071>073-080-081-089-090-097-098-280100-
   Southwest Minnesota

CITY           SKY/WX    TMP DP  RH WIND       PRES   REMARKS
MONTEVIDEO     SUNNY     84  73  70 S10       29.83F HX  91
GRANITE FALLS  SUNNY     84  72  66 E13G18    29.84S
CANBY          SUNNY     84  70  61 SE13      29.81S
MARSHALL       SUNNY     84  68  58 SE14      29.84S
REDWOOD FALLS  MOSUNNY   83  71  67 SE16      29.84S
OLIVIA         MOSUNNY   79  70  73 SE9       29.84F
PIPESTONE      SUNNY     82  72  69 SE10      29.84S
WINDOM         SUNNY     82  70  65 SE9       29.86F
WORTHINGTON    SUNNY     82  72  69 SE7       29.85S
JACKSON        MOSUNNY   82  70  65 SE10      29.88S
TRACY          SUNNY     82  72  69 SE13      29.85S
SLAYTON        SUNNY     82  72  72 SE7       29.86S
$$
MNZ065>067-074>077-082>085-091>093-280100-
   South Central Minnesota

CITY           SKY/WX    TMP DP  RH WIND       PRES   REMARKS
MANKATO        SUNNY     82  72  69 SE17      29.87F
NEW ULM        SUNNY     82  72  69 SE14G20   29.86S
ST JAMES       SUNNY     82  72  69 SE10      29.87S
FAIRMONT       SUNNY     81  64  57 SE16      29.87S
GLENCOE        MOSUNNY   85  75  73 SE9       29.87F HX  93
FARIBAULT      SUNNY     82  72  69 SE15      29.90F
OWATONNA       MOSUNNY   82  72  69 SE14G21   29.91S
WASECA         SUNNY     79  70  73 SE10      29.91F
ALBERT LEA     MOSUNNY   81  72  74 SE14G23   29.90S
$$
MNZ078>079-086>088-094>096-280100-
   Southeast Minnesota

CITY           SKY/WX    TMP DP  RH WIND       PRES   REMARKS
ROCHESTER      MOSUNNY   80  72  76 S10       29.95S
6HR MIN TEMP:  79; 6HR MAX TEMP:  82;

RED WING       MOSUNNY   84  72  65 SE7       29.91S
STANTON        MOSUNNY   84  71  65 SE9G17    29.90S
DODGE CENTER   MOSUNNY   81  72  74 SE9       29.94S
WINONA         PTSUNNY   81  68  65 SE6       29.93S
AUSTIN         PTSUNNY   81  72  74 SE10      29.93S
PRESTON        MOSUNNY   79  70  73 SE8       29.96S
$$
ABBREVIATIONS USED IN REMARKS
   TC - TEMPERATURES IN CELSIUS
  WCI - WIND CHILL INDEX
   HX - HEAT INDEX
  VSB - VISIBILITY
$$



USA.gov is the U.S. government's official web portal to all federal, state and local government web resources and services.